Year,Month,Day,Hour,Minute,Value (Times are PST for temperature in C)
2010,03,22,00,15,7.80
2010,03,22,00,16,7.80
2010,03,22,00,17,7.80
2010,03,22,00,18,7.80
2010,03,22,00,19,7.80
2010,03,22,00,20,7.80
2010,03,22,00,21,7.80
2010,03,22,00,22,7.80
2010,03,22,00,23,7.80
2010,03,22,00,24,7.80
2010,03,22,00,25,7.80
2010,03,22,00,26,7.80
2010,03,22,00,27,7.80
2010,03,22,00,28,7.80
2010,03,22,00,29,7.80
2010,03,22,00,30,7.80
2010,03,22,00,31,7.70
2010,03,22,00,32,7.70
2010,03,22,00,33,7.70
2010,03,22,00,34,7.70
2010,03,22,00,35,7.70
2010,03,22,00,36,7.70
2010,03,22,00,37,7.70
2010,03,22,00,38,7.70
2010,03,22,00,39,7.70
2010,03,22,00,40,7.70
2010,03,22,00,41,7.70
2010,03,22,00,42,7.70
2010,03,22,00,43,7.70
2010,03,22,00,44,7.70
2010,03,22,00,45,7.70
2010,03,22,00,46,7.60
2010,03,22,00,47,7.60
2010,03,22,00,48,7.60
2010,03,22,00,49,7.60
2010,03,22,00,50,7.60
2010,03,22,00,51,7.60
2010,03,22,00,52,7.60
2010,03,22,00,53,7.60
2010,03,22,00,54,7.60
2010,03,22,00,55,7.60
2010,03,22,00,56,7.60
2010,03,22,00,57,7.60
2010,03,22,00,58,7.60
2010,03,22,00,59,7.60
2010,03,22,01,00,7.70
2010,03,22,01,01,7.70
2010,03,22,01,02,7.70
2010,03,22,01,03,7.70
2010,03,22,01,04,7.70
2010,03,22,01,05,7.70
2010,03,22,01,06,7.70
2010,03,22,01,07,7.70
2010,03,22,01,08,7.70
2010,03,22,01,09,7.70
2010,03,22,01,10,7.70
2010,03,22,01,11,7.70
2010,03,22,01,12,7.70
2010,03,22,01,13,7.70
2010,03,22,01,14,7.70
2010,03,22,01,16,7.80
2010,03,22,01,17,7.80
2010,03,22,01,18,7.80
2010,03,22,01,19,7.80
2010,03,22,01,20,7.80
2010,03,22,01,21,7.80
2010,03,22,01,22,7.80
2010,03,22,01,23,7.80
2010,03,22,01,24,7.80
2010,03,22,01,25,7.80
2010,03,22,01,26,7.80
2010,03,22,01,27,7.80
2010,03,22,01,28,7.80
2010,03,22,01,29,7.80
2010,03,22,01,30,7.90
2010,03,22,01,31,7.90
2010,03,22,01,32,7.90
2010,03,22,01,33,7.90
2010,03,22,01,34,7.90
2010,03,22,01,35,7.90
2010,03,22,01,36,7.90
2010,03,22,01,37,7.90
2010,03,22,01,38,7.90
2010,03,22,01,39,7.90
2010,03,22,01,40,7.90
2010,03,22,01,41,7.90
2010,03,22,01,42,7.90
2010,03,22,01,43,7.90
2010,03,22,01,44,7.90
2010,03,22,01,45,7.80
2010,03,22,01,46,7.80
2010,03,22,01,47,7.80
2010,03,22,01,48,7.80
2010,03,22,01,49,7.80
2010,03,22,01,50,7.80
2010,03,22,01,51,7.80
2010,03,22,01,52,7.80
2010,03,22,01,53,7.80
2010,03,22,01,54,7.80
2010,03,22,01,55,7.80
2010,03,22,01,56,7.80
2010,03,22,01,57,7.80
2010,03,22,01,58,7.80
2010,03,22,01,59,7.80
2010,03,22,02,00,7.90
2010,03,22,02,01,7.90
2010,03,22,02,02,7.90
2010,03,22,02,03,7.90
2010,03,22,02,04,7.90
2010,03,22,02,05,7.90
2010,03,22,02,06,7.90
2010,03,22,02,07,7.90
2010,03,22,02,08,7.90
2010,03,22,02,09,7.90
2010,03,22,02,10,7.90
2010,03,22,02,11,7.90
2010,03,22,02,12,7.90
2010,03,22,02,13,7.90
2010,03,22,02,14,7.90
2010,03,22,02,15,7.90
2010,03,22,02,16,7.90
2010,03,22,02,17,7.90
2010,03,22,02,18,7.90
2010,03,22,02,19,7.90
2010,03,22,02,20,7.90
2010,03,22,02,21,7.90
2010,03,22,02,22,7.90
2010,03,22,02,23,7.90
2010,03,22,02,24,7.90
2010,03,22,02,25,7.90
2010,03,22,02,26,7.90
2010,03,22,02,27,7.90
2010,03,22,02,28,7.90
2010,03,22,02,29,7.90
2010,03,22,02,30,7.80
2010,03,22,02,31,7.80
2010,03,22,02,32,7.80
2010,03,22,02,33,7.80
2010,03,22,02,34,7.80
2010,03,22,02,35,7.80
2010,03,22,02,36,7.80
2010,03,22,02,37,7.80
2010,03,22,02,38,7.80
2010,03,22,02,39,7.80
2010,03,22,02,40,7.80
2010,03,22,02,41,7.80
2010,03,22,02,42,7.80
2010,03,22,02,43,7.80
2010,03,22,02,44,7.80
2010,03,22,02,45,7.80
2010,03,22,02,46,7.80
2010,03,22,02,47,7.80
2010,03,22,02,48,7.80
2010,03,22,02,49,7.80
2010,03,22,02,50,7.80
2010,03,22,02,51,7.80
2010,03,22,02,52,7.80
2010,03,22,02,53,7.80
2010,03,22,02,54,7.80
2010,03,22,02,55,7.80
2010,03,22,02,56,7.80
2010,03,22,02,57,7.80
2010,03,22,02,58,7.80
2010,03,22,02,59,7.80
2010,03,22,03,00,7.80
2010,03,22,03,01,7.80
2010,03,22,03,02,7.80
2010,03,22,03,03,7.80
2010,03,22,03,04,7.80
2010,03,22,03,05,7.80
2010,03,22,03,06,7.80
2010,03,22,03,07,7.80
2010,03,22,03,08,7.80
2010,03,22,03,09,7.80
2010,03,22,03,10,7.80
2010,03,22,03,11,7.80
2010,03,22,03,12,7.80
2010,03,22,03,13,7.80
2010,03,22,03,14,7.80
2010,03,22,03,15,7.80
2010,03,22,03,16,7.80
2010,03,22,03,17,7.80
2010,03,22,03,18,7.80
2010,03,22,03,19,7.80
2010,03,22,03,20,7.80
2010,03,22,03,21,7.80
2010,03,22,03,22,7.80
2010,03,22,03,23,7.80
2010,03,22,03,24,7.80
2010,03,22,03,25,7.80
2010,03,22,03,26,7.80
2010,03,22,03,27,7.80
2010,03,22,03,28,7.80
2010,03,22,03,29,7.80
2010,03,22,03,30,7.80
2010,03,22,03,31,7.80
2010,03,22,03,32,7.80
2010,03,22,03,33,7.80
2010,03,22,03,34,7.80
2010,03,22,03,35,7.80
2010,03,22,03,36,7.80
2010,03,22,03,37,7.80
2010,03,22,03,38,7.80
2010,03,22,03,39,7.80
2010,03,22,03,40,7.80
2010,03,22,03,41,7.80
2010,03,22,03,42,7.80
2010,03,22,03,43,7.80
2010,03,22,03,44,7.80
2010,03,22,03,45,7.80
2010,03,22,03,46,7.80
2010,03,22,03,47,7.80
2010,03,22,03,48,7.80
2010,03,22,03,49,7.80
2010,03,22,03,50,7.80
2010,03,22,03,51,7.80
2010,03,22,03,52,7.80
2010,03,22,03,53,7.80
2010,03,22,03,54,7.80
2010,03,22,03,55,7.80
2010,03,22,03,56,7.80
2010,03,22,03,57,7.80
2010,03,22,03,58,7.80
2010,03,22,03,59,7.80
2010,03,22,04,00,7.80
2010,03,22,04,01,7.70
2010,03,22,04,02,7.70
2010,03,22,04,03,7.70
2010,03,22,04,04,7.70
2010,03,22,04,05,7.70
2010,03,22,04,06,7.70
2010,03,22,04,07,7.70
2010,03,22,04,08,7.70
2010,03,22,04,09,7.70
2010,03,22,04,10,7.70
2010,03,22,04,11,7.70
2010,03,22,04,12,7.70
2010,03,22,04,13,7.70
2010,03,22,04,14,7.70
2010,03,22,04,15,7.50
2010,03,22,04,16,7.50
2010,03,22,04,17,7.50
2010,03,22,04,18,7.50
2010,03,22,04,19,7.50
2010,03,22,04,20,7.50
2010,03,22,04,21,7.50
2010,03,22,04,22,7.50
2010,03,22,04,23,7.50
2010,03,22,04,24,7.50
2010,03,22,04,25,7.50
2010,03,22,04,26,7.50
2010,03,22,04,27,7.50
2010,03,22,04,28,7.50
2010,03,22,04,29,7.50
2010,03,22,04,30,7.50
2010,03,22,04,31,7.40
2010,03,22,04,32,7.40
2010,03,22,04,33,7.40
2010,03,22,04,34,7.40
2010,03,22,04,35,7.40
2010,03,22,04,36,7.40
2010,03,22,04,37,7.40
2010,03,22,04,38,7.40
2010,03,22,04,39,7.40
2010,03,22,04,40,7.40
2010,03,22,04,41,7.40
2010,03,22,04,42,7.40
2010,03,22,04,43,7.40
2010,03,22,04,44,7.40
2010,03,22,04,45,7.40
2010,03,22,04,46,7.40
2010,03,22,04,47,7.40
2010,03,22,04,48,7.40
2010,03,22,04,49,7.40
2010,03,22,04,50,7.40
2010,03,22,04,51,7.40
2010,03,22,04,52,7.40
2010,03,22,04,53,7.40
2010,03,22,04,54,7.40
2010,03,22,04,55,7.40
2010,03,22,04,56,7.40
2010,03,22,04,57,7.40
2010,03,22,04,58,7.40
2010,03,22,04,59,7.40
2010,03,22,05,00,7.40
2010,03,22,05,01,7.40
2010,03,22,05,02,7.40
2010,03,22,05,03,7.40
2010,03,22,05,04,7.40
2010,03,22,05,05,7.40
2010,03,22,05,06,7.40
2010,03,22,05,07,7.40
2010,03,22,05,08,7.40
2010,03,22,05,09,7.40
2010,03,22,05,10,7.40
2010,03,22,05,11,7.40
2010,03,22,05,12,7.40
2010,03,22,05,13,7.40
2010,03,22,05,14,7.40
2010,03,22,05,15,7.60
2010,03,22,05,16,7.60
2010,03,22,05,17,7.60
2010,03,22,05,18,7.60
2010,03,22,05,19,7.60
2010,03,22,05,20,7.60
2010,03,22,05,21,7.60
2010,03,22,05,22,7.60
2010,03,22,05,23,7.60
2010,03,22,05,24,7.60
2010,03,22,05,25,7.60
2010,03,22,05,26,7.60
2010,03,22,05,27,7.60
2010,03,22,05,28,7.60
2010,03,22,05,29,7.60
2010,03,22,05,30,7.50
2010,03,22,05,31,7.50
2010,03,22,05,32,7.50
2010,03,22,05,33,7.50
2010,03,22,05,34,7.50
2010,03,22,05,35,7.50
2010,03,22,05,36,7.50
2010,03,22,05,37,7.50
2010,03,22,05,38,7.50
2010,03,22,05,39,7.50
2010,03,22,05,40,7.50
2010,03,22,05,41,7.50
2010,03,22,05,42,7.50
2010,03,22,05,43,7.50
2010,03,22,05,44,7.50
2010,03,22,05,45,7.50
2010,03,22,05,46,7.50
2010,03,22,05,47,7.50
2010,03,22,05,48,7.50
2010,03,22,05,49,7.50
2010,03,22,05,50,7.50
2010,03,22,05,51,7.50
2010,03,22,05,52,7.50
2010,03,22,05,53,7.50
2010,03,22,05,54,7.50
2010,03,22,05,55,7.50
2010,03,22,05,56,7.50
2010,03,22,05,57,7.50
2010,03,22,05,58,7.50
2010,03,22,05,59,7.50
2010,03,22,06,00,7.60
2010,03,22,06,01,7.60
2010,03,22,06,02,7.60
2010,03,22,06,03,7.60
2010,03,22,06,04,7.60
2010,03,22,06,05,7.60
2010,03,22,06,06,7.60
2010,03,22,06,07,7.60
2010,03,22,06,08,7.60
2010,03,22,06,09,7.60
2010,03,22,06,10,7.60
2010,03,22,06,11,7.60
2010,03,22,06,12,7.60
2010,03,22,06,13,7.60
2010,03,22,06,14,7.60
2010,03,22,06,15,7.60
2010,03,22,06,16,7.60
2010,03,22,06,17,7.60
2010,03,22,06,18,7.60
2010,03,22,06,19,7.60
2010,03,22,06,20,7.60
2010,03,22,06,21,7.60
2010,03,22,06,22,7.60
2010,03,22,06,23,7.60
2010,03,22,06,24,7.60
2010,03,22,06,25,7.60
2010,03,22,06,26,7.60
2010,03,22,06,27,7.60
2010,03,22,06,28,7.60
2010,03,22,06,29,7.60
2010,03,22,06,30,7.60
2010,03,22,06,31,7.60
2010,03,22,06,32,7.60
2010,03,22,06,33,7.60
2010,03,22,06,34,7.60
2010,03,22,06,35,7.60
2010,03,22,06,36,7.60
2010,03,22,06,37,7.60
2010,03,22,06,38,7.60
2010,03,22,06,39,7.60
2010,03,22,06,40,7.60
2010,03,22,06,41,7.60
2010,03,22,06,42,7.60
2010,03,22,06,43,7.60
2010,03,22,06,44,7.60
2010,03,22,06,45,7.60
2010,03,22,06,46,7.60
2010,03,22,06,47,7.60
2010,03,22,06,48,7.60
2010,03,22,06,49,7.60
2010,03,22,06,50,7.60
2010,03,22,06,51,7.60
2010,03,22,06,52,7.60
2010,03,22,06,53,7.60
2010,03,22,06,54,7.60
2010,03,22,06,55,7.60
2010,03,22,06,56,7.60
2010,03,22,06,57,7.60
2010,03,22,06,58,7.60
2010,03,22,06,59,7.60
2010,03,22,07,00,7.60
2010,03,22,07,01,7.70
2010,03,22,07,02,7.70
2010,03,22,07,03,7.70
2010,03,22,07,04,7.70
2010,03,22,07,05,7.70
2010,03,22,07,06,7.70
2010,03,22,07,07,7.70
2010,03,22,07,08,7.70
2010,03,22,07,09,7.70
2010,03,22,07,10,7.70
2010,03,22,07,11,7.70
2010,03,22,07,12,7.70
2010,03,22,07,13,7.70
2010,03,22,07,14,7.70
2010,03,22,07,15,7.70
2010,03,22,07,16,7.70
2010,03,22,07,17,7.70
2010,03,22,07,18,7.70
2010,03,22,07,19,7.70
2010,03,22,07,20,7.70
2010,03,22,07,21,7.70
2010,03,22,07,22,7.70
2010,03,22,07,23,7.70
2010,03,22,07,24,7.70
2010,03,22,07,25,7.70
2010,03,22,07,26,7.70
2010,03,22,07,27,7.70
2010,03,22,07,28,7.70
2010,03,22,07,29,7.70
2010,03,22,07,30,7.70
2010,03,22,07,31,7.70
2010,03,22,07,32,7.70
2010,03,22,07,33,7.70
2010,03,22,07,34,7.70
2010,03,22,07,35,7.70
2010,03,22,07,36,7.70
2010,03,22,07,37,7.70
2010,03,22,07,38,7.70
2010,03,22,07,39,7.70
2010,03,22,07,40,7.70
2010,03,22,07,41,7.70
2010,03,22,07,42,7.70
2010,03,22,07,43,7.70
2010,03,22,07,44,7.70
2010,03,22,07,45,7.70
2010,03,22,07,46,7.70
2010,03,22,07,47,7.70
2010,03,22,07,48,7.70
2010,03,22,07,49,7.70
2010,03,22,07,50,7.70
2010,03,22,07,51,7.70
2010,03,22,07,52,7.70
2010,03,22,07,53,7.70
2010,03,22,07,54,7.70
2010,03,22,07,55,7.70
2010,03,22,07,56,7.70
2010,03,22,07,57,7.70
2010,03,22,07,58,7.70
2010,03,22,07,59,7.70
2010,03,22,08,00,7.70
2010,03,22,08,01,7.60
2010,03,22,08,02,7.60
2010,03,22,08,03,7.60
2010,03,22,08,04,7.60
2010,03,22,08,05,7.60
2010,03,22,08,06,7.60
2010,03,22,08,07,7.60
2010,03,22,08,08,7.60
2010,03,22,08,09,7.60
2010,03,22,08,10,7.60
2010,03,22,08,11,7.60
2010,03,22,08,12,7.60
2010,03,22,08,13,7.60
2010,03,22,08,14,7.60
2010,03,22,08,15,7.60
2010,03,22,08,16,7.80
2010,03,22,08,17,7.80
2010,03,22,08,18,7.80
2010,03,22,08,19,7.80
2010,03,22,08,20,7.80
2010,03,22,08,21,7.80
2010,03,22,08,22,7.80
2010,03,22,08,23,7.80
2010,03,22,08,24,7.80
2010,03,22,08,25,7.80
2010,03,22,08,26,7.80
2010,03,22,08,27,7.80
2010,03,22,08,28,7.80
2010,03,22,08,29,7.80
2010,03,22,08,30,7.80
2010,03,22,08,31,7.70
2010,03,22,08,32,7.70
2010,03,22,08,33,7.70
2010,03,22,08,34,7.70
2010,03,22,08,35,7.70
2010,03,22,08,36,7.70
2010,03,22,08,37,7.70
2010,03,22,08,38,7.70
2010,03,22,08,39,7.70
2010,03,22,08,40,7.70
2010,03,22,08,41,7.70
2010,03,22,08,42,7.70
2010,03,22,08,43,7.70
2010,03,22,08,44,7.70
2010,03,22,08,45,7.80
2010,03,22,08,46,7.80
2010,03,22,08,47,7.80
2010,03,22,08,48,7.80
2010,03,22,08,49,7.80
2010,03,22,08,50,7.80
2010,03,22,08,51,7.80
2010,03,22,08,52,7.80
2010,03,22,08,53,7.80
2010,03,22,08,54,7.80
2010,03,22,08,55,7.80
2010,03,22,08,56,7.80
2010,03,22,08,57,7.80
2010,03,22,08,58,7.80
2010,03,22,08,59,7.80
2010,03,22,09,00,7.90
2010,03,22,09,01,7.90
2010,03,22,09,02,7.90
2010,03,22,09,03,7.90
2010,03,22,09,04,7.90
2010,03,22,09,05,7.90
2010,03,22,09,06,7.90
2010,03,22,09,07,7.90
2010,03,22,09,08,7.90
2010,03,22,09,09,7.90
2010,03,22,09,10,7.90
2010,03,22,09,11,7.90
2010,03,22,09,12,7.90
2010,03,22,09,13,7.90
2010,03,22,09,14,7.90
2010,03,22,09,15,8.10
2010,03,22,09,16,8.10
2010,03,22,09,17,8.10
2010,03,22,09,18,8.10
2010,03,22,09,19,8.10
2010,03,22,09,20,8.10
2010,03,22,09,21,8.10
2010,03,22,09,22,8.10
2010,03,22,09,23,8.10
2010,03,22,09,24,8.10
2010,03,22,09,25,8.10
2010,03,22,09,26,8.10
2010,03,22,09,27,8.10
2010,03,22,09,28,8.10
2010,03,22,09,30,8.00
2010,03,22,09,31,8.00
2010,03,22,09,32,8.00
2010,03,22,09,33,8.00
2010,03,22,09,34,8.00
2010,03,22,09,35,8.00
2010,03,22,09,36,8.00
2010,03,22,09,37,8.00
2010,03,22,09,38,8.00
2010,03,22,09,39,8.00
2010,03,22,09,40,8.00
2010,03,22,09,41,8.00
2010,03,22,09,42,8.00
2010,03,22,09,43,8.00
2010,03,22,09,44,8.00
2010,03,22,09,45,8.10
2010,03,22,09,46,8.10
2010,03,22,09,47,8.10
2010,03,22,09,48,8.10
2010,03,22,09,49,8.10
2010,03,22,09,50,8.10
2010,03,22,09,51,8.10
2010,03,22,09,52,8.10
2010,03,22,09,53,8.10
2010,03,22,09,54,8.10
2010,03,22,09,55,8.10
2010,03,22,09,56,8.10
2010,03,22,09,57,8.10
2010,03,22,09,58,8.10
2010,03,22,09,59,8.10
2010,03,22,10,00,8.20
2010,03,22,10,01,8.20
2010,03,22,10,02,8.20
2010,03,22,10,03,8.20
2010,03,22,10,04,8.20
2010,03,22,10,05,8.20
2010,03,22,10,06,8.20
2010,03,22,10,07,8.20
2010,03,22,10,08,8.20
2010,03,22,10,09,8.20
2010,03,22,10,10,8.20
2010,03,22,10,11,8.20
2010,03,22,10,12,8.20
2010,03,22,10,13,8.20
2010,03,22,10,14,8.20
2010,03,22,10,15,8.20
2010,03,22,10,16,8.20
2010,03,22,10,17,8.20
2010,03,22,10,18,8.20
2010,03,22,10,19,8.20
2010,03,22,10,20,8.20
2010,03,22,10,21,8.20
2010,03,22,10,22,8.20
2010,03,22,10,23,8.20
2010,03,22,10,24,8.20
2010,03,22,10,25,8.20
2010,03,22,10,26,8.20
2010,03,22,10,27,8.20
2010,03,22,10,28,8.20
2010,03,22,10,29,8.20
2010,03,22,10,30,8.30
2010,03,22,10,31,8.30
2010,03,22,10,32,8.30
2010,03,22,10,33,8.30
2010,03,22,10,34,8.30
2010,03,22,10,35,8.30
2010,03,22,10,36,8.30
2010,03,22,10,37,8.30
2010,03,22,10,38,8.30
2010,03,22,10,39,8.30
2010,03,22,10,40,8.30
2010,03,22,10,41,8.30
2010,03,22,10,42,8.30
2010,03,22,10,43,8.30
2010,03,22,10,44,8.30
2010,03,22,10,45,8.30
2010,03,22,10,46,8.30
2010,03,22,10,47,8.30
2010,03,22,10,48,8.30
2010,03,22,10,49,8.30
2010,03,22,10,50,8.30
2010,03,22,10,51,8.30
2010,03,22,10,52,8.30
2010,03,22,10,53,8.30
2010,03,22,10,54,8.30
2010,03,22,10,55,8.30
2010,03,22,10,56,8.30
2010,03,22,10,57,8.30
2010,03,22,10,58,8.30
2010,03,22,10,59,8.30
2010,03,22,11,00,8.50
2010,03,22,11,01,8.50
2010,03,22,11,02,8.50
2010,03,22,11,03,8.50
2010,03,22,11,04,8.50
2010,03,22,11,05,8.50
2010,03,22,11,06,8.50
2010,03,22,11,07,8.50
2010,03,22,11,08,8.50
2010,03,22,11,09,8.50
2010,03,22,11,10,8.50
2010,03,22,11,11,8.50
2010,03,22,11,12,8.50
2010,03,22,11,13,8.50
2010,03,22,11,14,8.50
2010,03,22,11,15,8.50
2010,03,22,11,16,8.50
2010,03,22,11,17,8.50
2010,03,22,11,18,8.50
2010,03,22,11,19,8.50
2010,03,22,11,20,8.50
2010,03,22,11,21,8.50
2010,03,22,11,22,8.50
2010,03,22,11,23,8.50
2010,03,22,11,24,8.50
2010,03,22,11,25,8.50
2010,03,22,11,26,8.50
2010,03,22,11,27,8.50
2010,03,22,11,28,8.50
2010,03,22,11,29,8.50
2010,03,22,11,30,8.50
2010,03,22,11,31,8.70
2010,03,22,11,32,8.70
2010,03,22,11,33,8.70
2010,03,22,11,34,8.70
2010,03,22,11,35,8.70
2010,03,22,11,36,8.70
2010,03,22,11,37,8.70
2010,03,22,11,38,8.70
2010,03,22,11,39,8.70
2010,03,22,11,40,8.70
2010,03,22,11,41,8.70
2010,03,22,11,42,8.70
2010,03,22,11,43,8.70
2010,03,22,11,44,8.70
2010,03,22,11,45,8.80
2010,03,22,11,46,8.80
2010,03,22,11,47,8.80
2010,03,22,11,48,8.80
2010,03,22,11,49,8.80
2010,03,22,11,50,8.80
2010,03,22,11,51,8.80
2010,03,22,11,52,8.80
2010,03,22,11,53,8.80
2010,03,22,11,54,8.80
2010,03,22,11,55,8.80
2010,03,22,11,56,8.80
2010,03,22,11,57,8.80
2010,03,22,11,58,8.80
2010,03,22,11,59,8.80
2010,03,22,12,00,8.90
2010,03,22,12,01,8.90
2010,03,22,12,02,8.90
2010,03,22,12,03,8.90
2010,03,22,12,04,8.90
2010,03,22,12,05,8.90
2010,03,22,12,06,8.90
2010,03,22,12,07,8.90
2010,03,22,12,08,8.90
2010,03,22,12,09,8.90
2010,03,22,12,10,8.90
2010,03,22,12,11,8.90
2010,03,22,12,12,8.90
2010,03,22,12,13,8.90
2010,03,22,12,14,8.90
2010,03,22,12,15,8.90
2010,03,22,12,16,8.90
2010,03,22,12,17,8.90
2010,03,22,12,18,8.90
2010,03,22,12,19,8.90
2010,03,22,12,20,8.90
2010,03,22,12,21,8.90
2010,03,22,12,22,8.90
2010,03,22,12,23,8.90
2010,03,22,12,24,8.90
2010,03,22,12,25,8.90
2010,03,22,12,26,8.90
2010,03,22,12,27,8.90
2010,03,22,12,28,8.90
2010,03,22,12,29,8.90
2010,03,22,12,30,8.80
2010,03,22,12,31,8.80
2010,03,22,12,32,8.80
2010,03,22,12,33,8.80
2010,03,22,12,34,8.80
2010,03,22,12,35,8.80
2010,03,22,12,36,8.80
2010,03,22,12,37,8.80
2010,03,22,12,38,8.80
2010,03,22,12,39,8.80
2010,03,22,12,40,8.80
2010,03,22,12,41,8.80
2010,03,22,12,42,8.80
2010,03,22,12,43,8.80
2010,03,22,12,44,8.80
2010,03,22,12,45,9.00
2010,03,22,12,46,9.00
2010,03,22,12,47,9.00
2010,03,22,12,48,9.00
2010,03,22,12,49,9.00
2010,03,22,12,50,9.00
2010,03,22,12,51,9.00
2010,03,22,12,52,9.00
2010,03,22,12,53,9.00
2010,03,22,12,54,9.00
2010,03,22,12,55,9.00
2010,03,22,12,56,9.00
2010,03,22,12,57,9.00
2010,03,22,12,58,9.00
2010,03,22,12,59,9.00
2010,03,22,13,00,9.30
2010,03,22,13,01,9.30
2010,03,22,13,02,9.30
2010,03,22,13,03,9.30
2010,03,22,13,04,9.30
2010,03,22,13,05,9.30
2010,03,22,13,06,9.30
2010,03,22,13,07,9.30
2010,03,22,13,08,9.30
2010,03,22,13,09,9.30
2010,03,22,13,10,9.30
2010,03,22,13,11,9.30
2010,03,22,13,12,9.30
2010,03,22,13,13,9.30
2010,03,22,13,14,9.30
2010,03,22,13,15,9.60
2010,03,22,13,16,9.60
2010,03,22,13,17,9.60
2010,03,22,13,18,9.60
2010,03,22,13,19,9.60
2010,03,22,13,20,9.60
2010,03,22,13,21,9.60
2010,03,22,13,22,9.60
2010,03,22,13,23,9.60
2010,03,22,13,24,9.60
2010,03,22,13,25,9.60
2010,03,22,13,26,9.60
2010,03,22,13,27,9.60
2010,03,22,13,28,9.60
2010,03,22,13,29,9.60
2010,03,22,13,30,9.60
2010,03,22,13,31,10.00
2010,03,22,13,32,10.00
2010,03,22,13,33,10.00
2010,03,22,13,34,10.00
2010,03,22,13,35,10.00
2010,03,22,13,36,10.00
2010,03,22,13,37,10.00
2010,03,22,13,38,10.00
2010,03,22,13,39,10.00
2010,03,22,13,40,10.00
2010,03,22,13,41,10.00
2010,03,22,13,42,10.00
2010,03,22,13,43,10.00
2010,03,22,13,44,10.00
2010,03,22,13,45,10.00
2010,03,22,13,46,10.20
2010,03,22,13,47,10.20
2010,03,22,13,48,10.20
2010,03,22,13,49,10.20
2010,03,22,13,50,10.20
2010,03,22,13,51,10.20
2010,03,22,13,52,10.20
2010,03,22,13,53,10.20
2010,03,22,13,54,10.20
2010,03,22,13,55,10.20
2010,03,22,13,56,10.20
2010,03,22,13,57,10.20
2010,03,22,13,58,10.20
2010,03,22,13,59,10.20
2010,03,22,14,00,10.60
2010,03,22,14,01,10.60
2010,03,22,14,02,10.60
2010,03,22,14,03,10.60
2010,03,22,14,04,10.60
2010,03,22,14,05,10.60
2010,03,22,14,06,10.60
2010,03,22,14,07,10.60
2010,03,22,14,08,10.60
2010,03,22,14,09,10.60
2010,03,22,14,10,10.60
2010,03,22,14,11,10.60
2010,03,22,14,12,10.60
2010,03,22,14,13,10.60
2010,03,22,14,14,10.60
2010,03,22,14,15,10.60
2010,03,22,14,16,10.70
2010,03,22,14,17,10.70
2010,03,22,14,18,10.70
2010,03,22,14,19,10.70
2010,03,22,14,20,10.70
2010,03,22,14,21,10.70
2010,03,22,14,22,10.70
2010,03,22,14,23,10.70
2010,03,22,14,24,10.70
2010,03,22,14,25,10.70
2010,03,22,14,26,10.70
2010,03,22,14,27,10.70
2010,03,22,14,28,10.70
2010,03,22,14,29,10.70
2010,03,22,14,30,10.90
2010,03,22,14,31,10.90
2010,03,22,14,32,10.90
2010,03,22,14,33,10.90
2010,03,22,14,34,10.90
2010,03,22,14,35,10.90
2010,03,22,14,36,10.90
2010,03,22,14,37,10.90
2010,03,22,14,38,10.90
2010,03,22,14,39,10.90
2010,03,22,14,40,10.90
2010,03,22,14,41,10.90
2010,03,22,14,42,10.90
2010,03,22,14,43,10.90
2010,03,22,14,44,10.90
2010,03,22,14,45,10.90
2010,03,22,14,46,10.90
2010,03,22,14,47,10.90
2010,03,22,14,48,10.90
2010,03,22,14,49,10.90
2010,03,22,14,50,10.90
2010,03,22,14,51,10.90
2010,03,22,14,52,10.90
2010,03,22,14,53,10.90
2010,03,22,14,54,10.90
2010,03,22,14,55,10.90
2010,03,22,14,56,10.90
2010,03,22,14,57,10.90
2010,03,22,14,58,10.90
2010,03,22,14,59,10.90
2010,03,22,15,00,10.90
2010,03,22,15,01,10.90
2010,03,22,15,02,10.90
2010,03,22,15,03,10.90
2010,03,22,15,04,10.90
2010,03,22,15,05,10.90
2010,03,22,15,06,10.90
2010,03,22,15,07,10.90
2010,03,22,15,08,10.90
2010,03,22,15,09,10.90
2010,03,22,15,10,10.90
2010,03,22,15,11,10.90
2010,03,22,15,12,10.90
2010,03,22,15,13,10.90
2010,03,22,15,14,10.90
2010,03,22,15,15,10.90
2010,03,22,15,16,10.70
2010,03,22,15,17,10.70
2010,03,22,15,18,10.70
2010,03,22,15,19,10.70
2010,03,22,15,20,10.70
2010,03,22,15,21,10.70
2010,03,22,15,22,10.70
2010,03,22,15,23,10.70
2010,03,22,15,24,10.70
2010,03,22,15,25,10.70
2010,03,22,15,26,10.70
2010,03,22,15,27,10.70
2010,03,22,15,28,10.70
2010,03,22,15,29,10.70
2010,03,22,15,30,10.70
2010,03,22,15,31,10.70
2010,03,22,15,32,10.70
2010,03,22,15,33,10.70
2010,03,22,17,47,10.70
2010,03,22,17,48,10.70
2010,03,22,17,49,10.70
2010,03,22,17,50,10.70
2010,03,22,17,51,10.70
2010,03,22,17,52,10.70
2010,03,22,17,53,10.70
2010,03,22,17,54,10.70
2010,03,22,17,55,10.70
2010,03,22,17,56,10.70
2010,03,22,17,57,10.70
2010,03,22,17,58,10.70
2010,03,22,17,59,10.70
2010,03,22,18,00,10.70
2010,03,22,18,01,10.40
2010,03,22,18,02,10.40
2010,03,22,18,03,10.40
2010,03,22,18,04,10.40
2010,03,22,18,05,10.40
2010,03,22,18,06,10.40
2010,03,22,18,07,10.40
2010,03,22,18,08,10.40
2010,03,22,18,09,10.40
2010,03,22,18,10,10.40
2010,03,22,18,11,10.40
2010,03,22,18,12,10.40
2010,03,22,18,13,10.40
2010,03,22,18,14,10.40
2010,03,22,18,15,10.30
2010,03,22,18,16,10.30
2010,03,22,18,17,10.30
2010,03,22,18,18,10.30
2010,03,22,18,19,10.30
2010,03,22,18,20,10.30
2010,03,22,18,21,10.30
2010,03,22,18,22,10.30
2010,03,22,18,23,10.30
2010,03,22,18,24,10.30
2010,03,22,18,25,10.30
2010,03,22,18,26,10.30
2010,03,22,18,27,10.30
2010,03,22,18,28,10.30
2010,03,22,18,29,10.30
2010,03,22,18,30,10.30
2010,03,22,18,31,10.20
2010,03,22,18,32,10.20
2010,03,22,18,33,10.20
2010,03,22,18,34,10.20
2010,03,22,18,35,10.20
2010,03,22,18,36,10.20
2010,03,22,18,37,10.20
2010,03,22,18,38,10.20
2010,03,22,18,39,10.20
2010,03,22,18,40,10.20
2010,03,22,18,41,10.20
2010,03,22,18,42,10.20
2010,03,22,18,43,10.20
2010,03,22,18,44,10.20
2010,03,22,18,45,10.20
2010,03,22,18,46,10.20
2010,03,22,18,47,10.20
2010,03,22,18,48,10.20
2010,03,22,18,49,10.20
2010,03,22,18,50,10.20
2010,03,22,18,51,10.20
2010,03,22,18,52,10.20
2010,03,22,18,53,10.20
2010,03,22,18,54,10.20
2010,03,22,18,55,10.20
2010,03,22,18,56,10.20
2010,03,22,18,57,10.20
2010,03,22,18,58,10.20
2010,03,22,18,59,10.20
2010,03,22,19,00,9.90
2010,03,22,19,01,9.90
2010,03,22,19,02,9.90
2010,03,22,19,03,9.90
2010,03,22,19,04,9.90
2010,03,22,19,05,9.90
2010,03,22,19,06,9.90
2010,03,22,19,07,9.90
2010,03,22,19,08,9.90
2010,03,22,19,09,9.90
2010,03,22,19,10,9.90
2010,03,22,19,11,9.90
2010,03,22,19,12,9.90
2010,03,22,19,13,9.90
2010,03,22,19,14,9.90
2010,03,22,19,16,9.80
2010,03,22,19,17,9.80
2010,03,22,19,18,9.80
2010,03,22,19,19,9.80
2010,03,22,19,20,9.80
2010,03,22,19,21,9.80
2010,03,22,19,22,9.80
2010,03,22,19,23,9.80
2010,03,22,19,24,9.80
2010,03,22,19,25,9.80
2010,03,22,19,26,9.80
2010,03,22,19,27,9.80
2010,03,22,19,28,9.80
2010,03,22,19,29,9.80
2010,03,22,19,30,9.70
2010,03,22,19,31,9.70
2010,03,22,19,32,9.70
2010,03,22,19,33,9.70
2010,03,22,19,34,9.70
2010,03,22,19,35,9.70
2010,03,22,19,36,9.70
2010,03,22,19,37,9.70
2010,03,22,19,38,9.70
2010,03,22,19,39,9.70
2010,03,22,19,40,9.70
2010,03,22,19,41,9.70
2010,03,22,19,42,9.70
2010,03,22,19,43,9.70
2010,03,22,19,44,9.70
2010,03,22,19,45,9.60
2010,03,22,19,46,9.60
2010,03,22,19,47,9.60
2010,03,22,19,48,9.60
2010,03,22,19,49,9.60
2010,03,22,19,50,9.60
2010,03,22,19,51,9.60
2010,03,22,19,52,9.60
2010,03,22,19,53,9.60
2010,03,22,19,54,9.60
2010,03,22,19,55,9.60
2010,03,22,19,56,9.60
2010,03,22,19,57,9.60
2010,03,22,19,58,9.60
2010,03,22,19,59,9.60
2010,03,22,20,00,9.60
2010,03,22,20,01,9.60
2010,03,22,20,02,9.60
2010,03,22,20,03,9.60
2010,03,22,20,04,9.60
2010,03,22,20,05,9.60
2010,03,22,20,06,9.60
2010,03,22,20,07,9.60
2010,03,22,20,08,9.60
2010,03,22,20,09,9.60
2010,03,22,20,10,9.60
2010,03,22,20,11,9.60
2010,03,22,20,12,9.60
2010,03,22,20,13,9.60
2010,03,22,20,14,9.60
2010,03,22,20,15,9.60
2010,03,22,20,16,9.50
2010,03,22,20,17,9.50
2010,03,22,20,18,9.50
2010,03,22,20,19,9.50
2010,03,22,20,20,9.50
2010,03,22,20,21,9.50
2010,03,22,20,22,9.50
2010,03,22,20,23,9.50
2010,03,22,20,24,9.50
2010,03,22,20,25,9.50
2010,03,22,20,26,9.50
2010,03,22,20,27,9.50
2010,03,22,20,28,9.50